Location: Boiro
(42.6475°N, 8.8834°W)
Time: 18:34:21
(UTC+01:00)

Vanguard 2 - Pass Details

Date: 03 December 2021
Orbit: 553 x 2936 km, 32.9° (Epoch: 21 January)

Event Time Altitude Azimuth Distance (km) Brightness Sun altitude
Rises 21:02:40 0° 264° (W) 4,476 12.6 -32.4°
Reaches altitude 10° 21:06:28 10° 247° (WSW) 3,884 11.8 -33.1°
Maximum altitude 21:13:21 19° 207° (SSW) 3,793 11.2 -34.4°
Drops below altitude 10° 21:22:14 10° 169° (SSE) 5,173 11.6 -36.0°
Sets 21:28:37 0° 155° (SSE) 6,515 12.0 -37.2°
